Weather Service Report


691 
ASUS41 KCTP 310803
RWRCTP

REGIONAL WEATHER ROUNDUP
NATIONAL WEATHER SERVICE STATE COLLEGE PA
400 AM EDT FRI OCT 31 2014

Note: "fair" indicates few or no clouds below 12,000 feet with no 
significant weather and/or obstructions to visibility.

* = STATION THAT DOES NOT REPORT PRECIPITATION /E.G. RAIN...SNOW...ETC/
    THUNDER OR FOG.

PAZ002>004-007>009-013>016-020>023-029>032-310900-
WESTERN PENNSYLVANIA
  
CITY           SKY/WX    TMP DP  RH WIND       PRES   REMARKS
ERIE           CLOUDY    42  36  79 S9        29.97F                  
MEADVILLE      CLOUDY    41  36  82 CALM      29.97F                  
FRANKLIN*      CLOUDY    39  36  87 CALM      29.99F                  
NEW CASTLE       N/A     42  39  89 CALM      30.00F                  
BEAVER COUNTY  NOT AVBL                                               
BUTLER*        CLOUDY    43  36  75 CALM      30.00F                  
PITTSBURGH INT CLOUDY    44  38  79 CALM      29.99S                  
PITTSBURGH     CLOUDY    45  34  65 SW3       29.98F                  
INDIANA*       CLOUDY    43  41  93 CALM      30.02S                  
LATROBE        CLOUDY    45  39  81 CALM      30.01S                  
WASHINGTON CO* CLOUDY    41  37  87 CALM      30.00F                  
$$

PAZ004>006-010>012-017>019-024>028-033>037-041-042-045-046-049>053-310900-
CENTRAL PENNSYLVANIA
  
CITY           SKY/WX    TMP DP  RH WIND       PRES   REMARKS
BRADFORD       CLOUDY    37  34  89 CALM      29.96F                  
DUBOIS         CLOUDY    41  36  82 E3        29.96F                  
CLEARFIELD     CLOUDY    40  36  86 NE3       29.99F                  
JOHNSTOWN      CLOUDY    41  35  79 CALM      29.97S                  
ALTOONA        CLOUDY    42  40  92 CALM      29.99F                  
STATE COLLEGE  CLOUDY    40  37  91 CALM      30.00S                  
WILLIAMSPORT   CLOUDY    35  31  85 CALM      30.03S                  
SELINSGROVE    CLOUDY    37  35  92 CALM      30.03S                  
FT INDIANTOWN  CLOUDY    45  38  78 CALM      30.02S                  
CAPITAL CITY   CLOUDY    48  38  68 E3        30.01F                  
HARRISBURG     CLOUDY    47  37  68 E3        30.01F                  
YORK           CLOUDY    45  40  82 CALM      30.01F                  
$$

PAZ038>040-043-044-047-048-054-055-060>062-067>071-310900-
EASTERN PENNSYLVANIA
  
CITY           SKY/WX    TMP DP  RH WIND       PRES   REMARKS
SCRANTON       CLEAR     34  29  82 SE3       30.01F                  
MOUNT POCONO   CLEAR     28  26  92 NW5       29.98F                  
ALLENTOWN      CLEAR     32  29  88 CALM      30.03S                  
QUAKERTOWN*    SUNNY     30  28  93 CALM      30.02F                  
READING        CLOUDY    37  33  85 N3        30.02S                  
LANCASTER      CLOUDY    44  39  82 CALM      30.01F                  
COATESVILLE    MOSUNNY   41  34  75 N3        30.01F                  
POTTSTOWN      CLEAR     32  30  92 CALM      30.03F                  
BLUE BELL      CLEAR     34  32  93 CALM      30.01S                  
DOYLESTOWN     CLEAR     33  31  92 CALM      30.01F                  
WILLOW GROVE   NOT AVBL                                               
NORTH PHILA    CLEAR     38  31  76 CALM      30.03F                  
PHILADELPHIA   CLEAR     42  33  70 N5        30.02F                  
$$

Return to Home page


Western Regional Climate Center, wrcc@dri.edu